sat.trackr.live / text

‹ back to catalog

FLOCK 4H-6

NORAD 66709 · 2025-276AV

PAYLOAD ACTIVE UNKNOWN

§ Identity

Operator
Country
US
Launch date
2025-11-28
Launch site
AFWTR
Launch vehicle
Mass (kg)
RCS (m²)

Purposes: earth_obs

External: N2YO · Heavens-Above · Gunter

§ Orbital elements

Epoch: 2026-09-19T23:04:03.209664Z

Period
94.65 min
Inclination
97.4110°
Eccentricity
0.0002709
Mean motion
15.21353773 rev/d
Perigee alt
499.9 km
Apogee alt
503.6 km
Semi-major
6,879.9 km
B*
1.3465e-4
RAAN
335.2514°
Arg perigee
48.4638°
Mean anomaly
311.6830°
Rev number
4,483

§ Raw data

FLOCK 4H-61 66709U 25276AV  26262.96114826  .00002947  00000+0  13465-3 0  99982 66709  97.4110 335.2514 0002709  48.4638 311.6830 15.21353773 44834

JSON: /api/v1/satellites/66709 · /tle

For live sub-satellite position, see the globe view (requires WebGL).

§ Visibility from observer

Set your observer location to see the next 7 days of passes ≥ 10°. The values pass through the URL so the page stays shareable.

No JS? Fill the form by hand. The geolocation button needs JavaScript.